CAPE
0 0 0 0 0 0 0 0 0 0 0 0 0 0 0 1 248 122 128 94 51 9 3 1 0 0 0 2 1 0 0 0 1 0 0 0 0 0 0 0 0 0 0
0 0 0 0 0 0 0 0 0 0 0 0 0 0 0 0 0 10 302 224 169 105 56 7 1 0 0 0 0 0 1 0 0 0 0 0 0 0 0 0 0 0 0
0 0 0 0 0 0 0 0 0 0 0 0 0 0 0 0 0 0 0 4 327 234 157 102 11 13 0 1 0 1 0 0 2 0 0 0 0 0 0 0 0 0 0
0 0 0 0 0 0 0 0 0 0 0 0 0 0 0 0 0 1 1 0 0 7 254 159 79 26 10 4 0 0 0 0 0 1 0 0 0 0 0 0 0 0 0
0 0 0 0 0 0 0 0 0 0 0 0 0 0 0 1 1 6 4 3 1 0 0 25 180 103 1 4 14 1 1 0 0 0 0 1 0 1 0 0 0 0 0
0 0 0 0 0 0 0 0 0 0 0 0 0 0 1 2 2 1 11 8 6 5 1 1 4 3 0 1 1 0 5 37 1 0 0 0 0 0 0 0 0 1 0
0 0 0 0 0 0 0 0 0 0 0 0 0 1 2 4 3 3 3 8 3 4 8 7 6 4 3 14 3 1 1 0 0 26 0 0 0 0 0 0 0 0 0
0 0 0 0 0 0 0 0 0 2 3 3 4 5 4 3 4 11 5 9 2 1 1 1 2 3 11 8 15 33 12 0 0 0 0 0 0 0 0 0 0 0 1
0 0 0 0 0 0 0 0 0 3 4 3 5 4 3 3 5 14 13 16 3 0 0 0 2 4 2 1 0 2 2 1 0 0 0 0 0 0 0 0 1 0 0
0 0 0 0 0 0 0 0 2 2 2 3 4 6 5 6 8 18 15 9 12 0 0 0 1 4 1 3 3 5 0 0 0 1 0 0 0 0 1 0 0 0 0
0 0 0 0 0 0 0 1 2 1 1 1 1 1 2 3 6 13 5 16 15 10 2 0 0 2 8 23 17 6 0 1 3 1 0 0 0 0 0 0 0 0 0
0 0 0 0 0 0 1 2 2 4 7 6 6 5 5 9 3 2 9 7 4 9 6 12 9 16 10 14 8 4 0 0 0 0 0 0 0 0 0 0 0 0 0
0 0 0 0 1 1 1 3 2 4 6 6 8 7 7 8 6 6 11 14 11 8 8 8 9 11 22 13 10 7 1 0 0 0 0 0 0 0 0 1 1 1 1
0 0 0 0 1 1 2 1 4 4 6 11 9 8 7 7 9 14 16 16 15 16 15 14 7 17 15 5 0 0 0 0 0 0 0 0 0 1 0 0 0 0 0
0 0 0 0 0 0 0 1 2 2 9 8 6 10 8 4 15 25 17 17 13 21 7 6 7 8 6 0 0 0 0 0 0 0 0 0 0 0 0 0 0 0 0
0 0 0 0 0 0 0 0 0 0 1 2 3 5 12 14 29 30 26 18 13 23 2 2 3 5 4 4 8 8 5 0 0 0 0 0 0 0 0 0 0 0 1
0 0 0 0 0 0 0 0 0 0 0 0 0 3 3 11 10 15 29 19 4 4 2 1 4 6 6 6 4 4 7 9 3 0 0 0 0 0 0 0 0 0 0
0 0 0 0 0 0 0 0 0 0 0 0 0 1 1 11 6 7 12 1 0 0 1 3 3 3 4 6 4 3 3 0 16 1 0 0 0 0 0 0 0 0 0
0 0 0 0 0 0 0 0 0 0 0 0 0 0 1 14 1 3 3 1 1 1 2 1 2 5 3 3 4 4 3 1 1 6 3 0 0 0 0 0 0 0 0
0 0 0 0 0 0 0 0 0 0 0 0 0 0 0 0 0 0 0 0 0 0 0 2 1 3 2 3 4 3 3 3 1 0 0 14 0 0 0 0 0 0 0
0 0 0 0 0 0 0 0 0 0 0 0 0 0 26 0 0 0 0 0 0 0 0 1 1 1 3 1 2 3 2 3 2 2 0 2 3 4 0 0 0 0 0
0 0 0 0 0 0 0 0 0 0 0 0 0 0 13 0 0 0 0 0 0 0 0 0 0 0 3 1 1 3 1 0 0 4 1 0 1 4 1 0 0 0 0
0 0 0 0 0 0 0 0 0 0 0 0 0 0 0 0 0 0 0 0 0 0 0 0 0 0 0 0 0 1 0 0 1 0 1 0 0 3 5 14 2 1 0
0 0 0 0 0 0 0 0 0 0 0 0 0 0 0 0 0 0 0 0 0 0 0 0 0 0 0 0 0 0 0 0 0 0 0 0 1 2 3 5 7 1 0
0 0 0 0 0 0 0 0 0 0 0 0 0 0 0 0 0 0 0 0 0 0 0 0 0 0 0 0 0 0 0 2 0 0 0 0 0 0 0 3 2 0 0
0 0 0 0 0 0 0 0 0 0 0 0 0 0 0 0 0 0 0 0 0 0 0 0 0 0 0 0 0 3 3 16 5 0 0 0 0 0 0 1 1 0 0
CIN
-0 -0 -0 -0 -0 -0 -0 -0 -0 -0 -0 -0 -0 -0 -0 -3 -3 -25 -30 -49 -50 -105 -122 -0 -0 -0 -0 -0 -1 -0 -0 -0 -0 -0 -0 -0 -0 -0 -0 -0 -0 -0 -0
-0 -0 -0 -0 -0 -0 -0 -0 -0 -0 -0 -0 -0 -0 -0 -0 -0 -2 -4 -25 -20 -46 -51 -97 -18 -15 -0 -0 -0 -1 -0 -1 -0 -0 -0 -0 -0 -0 -0 -0 -0 -0 -0
-0 -0 -0 -0 -0 -0 -0 -0 -0 -0 -0 -0 -0 -0 -0 -0 -0 -0 -0 -5 -2 -16 -30 -52 -91 -27 -0 -0 -0 -0 -1 -0 -0 -0 -0 -0 -0 -0 -0 -0 -0 -0 -0
-0 -0 -0 -0 -0 -0 -0 -0 -0 -0 -0 -0 -0 -0 -0 -0 -0 -0 -0 -0 -0 -38 -23 -39 -53 -51 -68 -51 -0 -0 -0 -0 -0 -0 -1 -8 -0 -0 -0 -0 -0 -0 -0
-0 -0 -0 -0 -0 -0 -0 -0 -0 -0 -0 -0 -0 -0 -0 -0 -0 -0 -0 -0 -0 -0 -0 -43 -38 -75 -26 -22 -83 -73 -84 -0 -1 -0 -0 -12 -0 -0 -0 -0 -0 -0 -0
-0 -0 -0 -0 -0 -0 -0 -0 -0 -0 -0 -0 -0 -0 -0 -0 -0 -0 -0 -0 -0 -0 -0 -0 -0 -0 -0 -0 -0 -0 -98 -51 -30 -1 -0 -0 -0 -0 -0 -0 -0 -0 -0
-0 -0 -0 -0 -0 -0 -0 -0 -0 -0 -0 -0 -0 -0 -0 -0 -0 -0 -0 -0 -0 -0 -0 -0 -0 -0 -6 -9 -13 -0 -0 -0 -0 -39 -5 -0 -0 -0 -0 -0 -0 -0 -0
-0 -0 -0 -0 -0 -0 -0 -0 -0 -0 -0 -0 -0 -0 -0 -0 -0 -0 -1 -0 -0 -0 -0 -0 -0 -0 -0 -6 -3 -1 -5 -0 -0 -0 -0 -0 -0 -0 -0 -0 -0 -0 -0
-0 -0 -0 -0 -0 -0 -0 -0 -0 -0 -0 -0 -0 -0 -0 -0 -0 -0 -0 -0 -0 -0 -0 -0 -0 -0 -0 -1 -0 -0 -1 -2 -1 -0 -0 -0 -0 -0 -0 -0 -0 -0 -0
-0 -0 -0 -0 -0 -0 -0 -0 -0 -0 -0 -0 -0 -0 -0 -0 -0 -0 -0 -0 -0 -0 -0 -0 -1 -1 -2 -4 -1 -0 -1 -0 -3 -0 -0 -0 -0 -0 -0 -0 -0 -0 -0
-0 -0 -0 -0 -0 -0 -0 -0 -0 -0 -0 -0 -0 -0 -0 -0 -0 -0 -0 -0 -0 -0 -0 -0 -0 -2 -1 -0 -0 -0 -0 -0 -0 -0 -0 -0 -0 -0 -0 -0 -0 -0 -0
-0 -0 -0 -0 -0 -0 -0 -0 -0 -0 -0 -0 -0 -0 -0 -0 -0 -0 -0 -0 -0 -0 -0 -0 -0 -0 -1 -0 -0 -0 -0 -0 -0 -0 -0 -0 -0 -0 -0 -0 -0 -0 -0
-0 -0 -0 -0 -0 -0 -0 -0 -0 -0 -0 -0 -0 -0 -0 -0 -0 -0 -0 -0 -0 -0 -0 -0 -0 -0 -0 -0 -0 -0 -1 -0 -0 -0 -0 -0 -0 -0 -0 -0 -0 -0 -0
-0 -0 -0 -0 -0 -0 -0 -0 -0 -0 -0 -0 -0 -0 -0 -0 -0 -0 -0 -0 -0 -0 -0 -0 -0 -0 -0 -0 -0 -0 -0 -0 -0 -0 -0 -0 -0 -0 -0 -0 -0 -0 -0
-0 -0 -0 -0 -0 -0 -0 -0 -0 -0 -0 -0 -0 -0 -0 -0 -0 -0 -0 -0 -0 -0 -0 -0 -0 -0 -0 -0 -0 -0 -1 -0 -0 -0 -0 -0 -0 -0 -0 -0 -0 -0 -0
-0 -0 -0 -0 -0 -0 -0 -0 -0 -0 -0 -0 -0 -0 -0 -0 -0 -0 -0 -0 -0 -0 -0 -0 -0 -0 -0 -0 -0 -0 -0 -0 -0 -0 -0 -0 -0 -0 -0 -0 -0 -0 -0
-0 -0 -0 -0 -0 -0 -0 -0 -0 -0 -0 -0 -0 -0 -0 -0 -0 -0 -0 -0 -0 -0 -0 -0 -0 -0 -0 -0 -0 -0 -0 -0 -1 -0 -0 -0 -0 -0 -0 -0 -0 -0 -0
-0 -0 -0 -0 -0 -0 -0 -0 -0 -0 -0 -0 -0 -0 -0 -0 -0 -0 -0 -0 -0 -0 -0 -0 -0 -0 -0 -0 -0 -0 -0 -0 -0 -1 -0 -0 -0 -0 -0 -0 -0 -0 -0
-0 -0 -0 -0 -0 -0 -0 -0 -0 -0 -0 -0 -0 -0 -0 -0 -0 -0 -0 -0 -0 -0 -0 -0 -0 -0 -0 -0 -0 -0 -0 -0 -0 -0 -0 -0 -0 -0 -0 -0 -0 -0 -0
-0 -0 -0 -0 -0 -0 -0 -0 -0 -0 -0 -0 -0 -0 -0 -0 -0 -0 -0 -0 -0 -0 -0 -0 -0 -0 -0 -0 -0 -0 -0 -0 -0 -0 -0 -0 -0 -0 -0 -0 -0 -0 -0
-0 -0 -0 -0 -0 -0 -0 -0 -0 -0 -0 -0 -0 -0 -0 -0 -0 -0 -0 -0 -0 -0 -0 -0 -0 -0 -0 -0 -0 -0 -0 -0 -0 -0 -0 -0 -0 -0 -0 -0 -0 -0 -0
-0 -0 -0 -0 -0 -0 -0 -0 -0 -0 -0 -0 -0 -0 -0 -0 -0 -0 -0 -0 -0 -0 -0 -0 -0 -0 -0 -0 -0 -0 -0 -0 -0 -0 -0 -0 -0 -0 -0 -0 -0 -0 -0
-0 -0 -0 -0 -0 -0 -0 -0 -0 -0 -0 -0 -0 -0 -0 -0 -0 -0 -0 -0 -0 -0 -0 -0 -0 -0 -0 -0 -0 -0 -0 -0 -0 -0 -0 -0 -0 -0 -0 -0 -2 -0 -0
-0 -0 -0 -0 -0 -0 -0 -0 -0 -0 -0 -0 -0 -0 -0 -0 -0 -0 -0 -0 -0 -0 -0 -0 -0 -0 -0 -0 -0 -0 -0 -0 -0 -0 -0 -0 -0 -0 -0 -0 -0 -0 -0
-0 -0 -0 -0 -0 -0 -0 -0 -0 -0 -0 -0 -0 -0 -0 -0 -0 -0 -0 -0 -0 -0 -0 -0 -0 -0 -0 -0 -0 -0 -0 -0 -0 -0 -0 -0 -0 -0 -0 -0 -0 -0 -0
-0 -0 -0 -0 -0 -0 -0 -0 -0 -0 -0 -0 -0 -0 -0 -0 -0 -0 -0 -0 -0 -0 -0 -0 -0 -0 -0 -0 -0 -0 -0 -0 -0 -0 -0 -0 -0 -0 -0 -0 -0 -0 -0
Wind_Speed
14 13 13 12 12 12 12 13 14 14 15 15 15 14 14 15 12 14 15 16 16 16 16 16 19 18 13 13 13 13 15 15 17 14 13 10 10 12 9 9 9 11 10
13 13 13 13 14 14 14 15 15 15 14 15 16 15 13 13 14 16 15 14 16 17 17 17 19 14 20 18 14 18 17 17 15 20 14 13 14 12 12 12 11 9 10
13 13 13 13 15 16 16 16 15 16 16 15 15 15 16 15 14 14 15 16 17 18 18 19 19 19 19 15 17 17 15 13 15 15 17 14 14 4 6 4 8 9 7
13 14 14 15 16 15 15 16 15 16 16 16 16 15 15 15 15 13 15 17 17 17 19 19 21 20 22 20 18 19 16 16 16 16 13 14 11 5 9 11 5 4 8
12 12 13 14 14 14 14 14 14 14 14 15 17 14 15 14 10 17 17 18 19 19 19 20 18 20 24 21 14 17 16 15 15 14 14 14 6 4 13 8 13 10 9
11 12 13 13 14 14 14 15 16 15 15 15 15 16 16 11 23 23 21 17 19 19 18 19 19 17 18 23 25 30 26 17 16 14 15 17 19 15 14 15 14 6 8
10 12 13 13 13 13 14 13 14 14 15 15 16 15 16 16 23 24 25 17 19 18 19 18 18 15 15 15 19 23 29 31 34 25 19 18 18 18 17 15 17 14 12
10 12 12 14 14 14 13 14 14 13 14 14 14 16 17 15 25 24 25 19 19 21 20 20 21 22 20 18 19 20 19 20 22 18 24 21 19 19 18 20 20 16 4
11 12 13 14 14 14 14 14 13 13 13 13 13 17 19 18 27 26 23 17 19 22 20 21 19 21 24 24 21 22 23 24 15 24 27 29 30 24 19 12 8 9 6
12 13 13 13 14 14 14 14 13 12 13 12 14 14 18 17 25 29 27 16 18 18 22 21 22 20 23 22 16 19 22 24 15 7 8 18 23 21 19 20 14 14 8
12 12 12 12 13 13 14 12 13 13 14 15 16 14 14 16 18 27 31 18 15 17 18 18 15 23 25 25 25 19 22 20 21 13 12 11 11 13 12 15 16 15 12
11 11 11 11 10 11 12 12 13 12 12 13 13 12 10 13 21 23 31 33 31 19 19 16 17 28 31 32 28 30 31 26 14 14 12 13 11 9 10 12 17 16 16
11 10 10 11 11 12 12 12 10 11 10 11 11 11 12 11 12 26 31 33 31 22 19 28 40 38 35 27 26 26 22 14 14 14 14 12 11 9 8 4 2 4 3
9 10 10 10 11 10 9 9 8 9 10 10 11 12 12 12 12 14 14 15 23 21 26 21 28 32 33 27 19 17 12 12 13 13 14 9 5 4 8 7 8 8 5
9 9 10 8 9 10 9 8 9 10 12 11 9 11 12 13 14 26 25 18 17 21 23 17 16 14 13 12 10 11 11 11 11 11 11 9 7 7 7 7 7 8 9
9 8 8 8 8 9 9 10 13 16 19 18 21 18 10 23 31 31 32 33 31 33 14 14 15 15 15 15 17 14 9 10 10 10 10 9 8 8 8 6 8 9 12
7 9 7 8 8 9 9 10 14 11 17 17 21 23 23 27 31 31 32 32 26 23 12 14 13 15 15 16 15 15 18 13 11 10 10 9 7 7 7 8 9 9 10
6 8 6 7 7 7 8 8 9 11 14 11 15 21 23 27 30 27 30 24 16 15 12 13 14 14 15 16 16 16 17 15 17 10 9 9 7 7 7 8 9 11 12
5 5 5 6 6 8 7 8 8 9 10 11 11 14 16 26 26 24 26 11 13 13 13 13 14 14 14 15 15 15 16 16 15 18 10 9 7 7 9 9 10 13 13
3 7 6 4 6 6 6 7 8 8 9 10 10 11 13 14 12 12 11 11 11 12 12 13 13 14 14 15 16 16 16 16 16 14 14 17 8 7 8 9 9 9 10
3 4 7 5 5 5 6 6 7 8 8 9 10 11 26 12 10 10 11 10 11 12 13 13 13 13 13 14 15 15 16 15 15 15 14 15 17 10 7 6 7 8 8
2 4 4 4 5 6 6 6 7 7 8 9 10 10 23 8 9 9 10 10 11 10 10 12 12 12 12 13 15 15 16 16 16 17 16 15 15 17 8 6 6 6 7
2 3 4 4 4 6 6 5 5 7 8 9 9 10 9 9 9 10 10 10 10 10 11 11 12 12 12 13 13 13 14 15 16 17 16 16 14 14 14 9 6 6 7
3 3 4 5 4 4 5 6 7 8 8 8 9 9 9 9 10 11 11 10 10 10 10 11 11 15 15 14 13 13 13 15 16 16 19 16 14 15 13 12 7 5 7
3 4 4 5 5 6 6 6 7 7 7 8 9 8 9 9 10 10 10 10 10 10 12 12 11 15 17 22 20 21 22 25 23 23 14 16 17 18 14 11 7 2 2
3 4 5 4 5 5 5 6 7 7 8 8 8 9 9 10 10 10 10 11 10 12 14 11 14 19 21 17 18 23 25 25 22 24 13 13 14 13 12 13 12 4 3
Wind_Direction
1 357 359 4 12 8 359 354 347 341 341 336 330 325 321 315 281 246 244 245 242 240 236 234 236 233 233 234 236 230 233 229 243 245 244 232 220 218 214 211 215 210 214
350 353 360 355 4 4 355 352 342 338 341 336 325 324 323 322 320 313 273 255 256 255 248 242 242 238 235 234 233 235 234 230 234 247 243 240 225 217 217 206 212 212 209
352 354 354 356 2 355 346 351 340 333 337 328 326 326 321 320 318 315 308 310 277 255 250 249 249 242 243 237 237 238 236 234 233 232 240 233 229 175 198 208 206 214 201
352 356 357 357 353 344 339 337 330 337 327 326 319 323 321 320 320 320 336 324 310 308 274 252 249 246 247 244 239 243 236 231 227 237 239 234 228 207 211 206 217 215 196
351 352 352 345 339 334 334 330 328 323 326 319 315 328 323 322 327 337 327 322 316 307 297 292 261 251 248 245 246 247 241 237 237 234 236 236 197 181 208 206 219 197 215
347 349 344 342 335 333 332 330 330 330 323 323 327 331 321 322 324 327 319 315 311 304 299 294 291 274 254 247 240 241 242 246 238 237 244 229 224 218 218 209 209 163 209
347 344 341 338 334 333 327 322 321 324 326 329 325 319 318 320 320 320 316 306 305 300 296 297 292 285 284 272 251 243 245 243 242 249 247 236 235 218 219 212 207 206 206
347 344 342 339 334 330 329 329 327 328 327 324 323 321 317 315 320 318 313 309 310 305 302 299 296 296 291 290 287 274 259 242 237 237 246 251 240 226 210 210 205 206 67
354 345 343 338 334 334 333 333 332 327 327 325 324 323 323 322 325 320 321 315 310 306 304 301 296 294 296 297 293 289 279 266 251 231 234 242 243 240 214 204 196 175 193
352 341 339 338 335 332 331 334 325 326 326 329 326 326 323 320 334 331 330 317 305 306 305 303 294 289 296 295 293 294 275 273 277 263 237 246 242 241 213 210 201 202 193
341 335 334 334 333 335 334 327 331 333 333 336 334 331 326 325 324 331 335 335 323 312 301 299 299 299 298 291 287 285 283 298 290 260 241 242 239 233 220 214 209 205 194
336 330 329 332 337 337 332 331 335 334 332 329 326 326 328 333 331 333 336 329 324 317 306 303 296 293 290 289 289 282 283 288 281 277 261 252 241 224 216 208 212 207 211
329 327 333 333 334 334 335 332 334 336 332 328 332 333 335 333 333 335 332 330 326 318 306 300 299 293 283 282 278 279 278 275 270 262 260 254 246 228 219 188 102 121 54
327 334 335 334 330 332 330 332 328 328 326 332 335 336 331 337 333 336 333 329 327 323 319 305 290 279 275 270 277 271 261 260 259 257 258 252 228 170 199 185 191 176 163
336 333 335 330 330 327 329 326 325 321 323 329 332 336 331 338 336 338 340 338 338 333 333 330 336 326 301 280 269 267 266 267 268 269 264 253 220 197 199 187 189 177 195
336 337 331 328 332 329 326 320 319 321 329 334 339 340 334 336 337 339 342 344 347 350 344 344 342 340 338 331 334 306 283 273 272 272 265 250 227 209 201 192 196 196 203
333 326 327 329 328 328 329 328 325 329 331 337 341 340 347 335 345 342 344 345 350 359 351 344 341 339 337 334 333 327 330 307 285 273 271 260 237 225 203 196 200 201 208
316 305 319 322 321 320 322 319 318 322 328 333 339 340 348 340 348 347 348 346 344 1 354 342 337 337 337 335 333 331 329 327 322 285 276 265 245 228 218 212 207 201 204
321 323 322 318 316 317 316 323 322 321 321 320 328 336 342 342 346 346 355 354 343 340 340 339 336 332 337 334 332 330 331 331 328 336 295 275 257 233 233 225 218 209 202
302 312 324 310 316 317 322 324 322 323 323 323 326 327 325 345 345 344 346 342 339 333 333 333 335 328 336 335 332 331 332 336 337 340 334 325 273 247 242 236 220 209 206
311 317 317 319 311 309 311 318 317 317 316 316 312 319 330 347 332 332 328 336 333 333 330 329 330 328 332 333 331 330 332 330 333 333 335 329 329 284 250 239 227 216 209
321 306 309 301 302 310 313 312 311 310 308 308 311 313 329 327 323 322 321 323 325 324 323 322 323 326 327 331 329 326 328 328 332 329 332 329 321 322 278 248 229 211 194
300 305 310 297 284 296 303 300 296 300 302 304 306 310 316 318 317 315 314 315 317 317 320 319 318 320 323 323 323 320 323 322 321 321 323 326 322 320 322 288 234 204 189
291 289 284 286 289 286 283 287 294 292 295 297 300 302 306 308 308 308 309 310 311 313 316 314 314 313 319 318 319 314 317 316 317 314 329 323 322 325 320 314 299 243 190
280 282 273 273 277 283 288 287 284 281 286 292 297 297 301 301 302 303 304 306 308 309 314 311 310 313 313 314 309 311 316 321 317 321 333 329 327 329 325 318 309 277 151
266 262 262 269 274 267 264 277 282 283 284 289 291 293 295 297 297 299 302 305 307 311 307 308 305 308 309 307 307 313 317 323 324 325 340 334 333 332 336 329 324 310 224